TimeAKST,TemperatureF,Dew PointF,Humidity,Sea Level PressureIn,VisibilityMPH,Wind Direction,Wind SpeedMPH,Gust SpeedMPH,PrecipitationIn,Events,Conditions,WindDirDegrees,DateUTC
12:16 AM,-45.4,-9999,N/A,30.24,0.5,Calm,Calm,-,N/A,,Overcast,0,2013-01-27 09:16:00
12:36 AM,-47.2,-9999,N/A,30.24,0.8,Calm,Calm,-,N/A,,Overcast,0,2013-01-27 09:36:00
12:56 AM,-50.8,-9999,N/A,30.25,0.8,Calm,Calm,-,N/A,,Overcast,0,2013-01-27 09:56:00
1:16 AM,-50.8,-9999,N/A,30.25,0.5,Calm,Calm,-,N/A,,Overcast,0,2013-01-27 10:16:00
1:36 AM,-50.8,-9999,N/A,30.26,0.5,Calm,Calm,-,N/A,,Overcast,0,2013-01-27 10:36:00
1:56 AM,-50.8,-9999,N/A,30.26,0.5,Calm,Calm,-,N/A,,Overcast,0,2013-01-27 10:56:00
2:16 AM,-50.8,-9999,N/A,30.27,0.5,Calm,Calm,-,N/A,,Overcast,0,2013-01-27 11:16:00
2:36 AM,-52.6,-9999,N/A,30.28,0.5,Calm,Calm,-,N/A,,Overcast,0,2013-01-27 11:36:00
2:56 AM,-52.6,-9999,N/A,30.28,0.2,Calm,Calm,-,N/A,,Overcast,0,2013-01-27 11:56:00
3:16 AM,-52.6,-9999,N/A,30.28,0.2,Calm,Calm,-,N/A,,Overcast,0,2013-01-27 12:16:00
3:36 AM,-52.6,-9999,N/A,30.29,0.5,Calm,Calm,-,N/A,,Overcast,0,2013-01-27 12:36:00
3:56 AM,-54.4,-9999,N/A,30.29,0.5,Calm,Calm,-,N/A,,Overcast,0,2013-01-27 12:56:00
4:16 AM,-54.4,-9999,N/A,30.30,0.5,Calm,Calm,-,N/A,,Overcast,0,2013-01-27 13:16:00
4:36 AM,-54.4,-9999,N/A,30.30,0.5,Calm,Calm,-,N/A,,Overcast,0,2013-01-27 13:36:00
4:56 AM,-54.4,-9999,N/A,30.31,0.8,Calm,Calm,-,N/A,,Overcast,0,2013-01-27 13:56:00
5:16 AM,-54.4,-9999,N/A,30.31,0.8,Calm,Calm,-,N/A,,Overcast,0,2013-01-27 14:16:00
5:36 AM,-54.4,-9999,N/A,30.31,0.5,Calm,Calm,-,N/A,,Overcast,0,2013-01-27 14:36:00
5:56 AM,-56.2,-9999,N/A,30.32,0.5,Calm,Calm,-,N/A,,Overcast,0,2013-01-27 14:56:00
6:16 AM,-54.4,-9999,N/A,30.33,1.2,Calm,Calm,-,N/A,,Overcast,0,2013-01-27 15:16:00
6:36 AM,-56.2,-9999,N/A,30.33,1.0,Calm,Calm,-,N/A,,Overcast,0,2013-01-27 15:36:00
6:56 AM,-56.2,-9999,N/A,30.33,2.5,Calm,Calm,-,N/A,,Overcast,0,2013-01-27 15:56:00
7:16 AM,-54.4,-9999,N/A,30.33,1.0,Calm,Calm,-,N/A,,Overcast,0,2013-01-27 16:16:00
7:36 AM,-56.2,-9999,N/A,30.34,1.0,Calm,Calm,-,N/A,,Overcast,0,2013-01-27 16:36:00
7:56 AM,-56.2,-9999,N/A,30.34,1.0,Calm,Calm,-,N/A,,Overcast,0,2013-01-27 16:56:00
8:02 AM,-56.2,-9999,N/A,30.34,0.2,Calm,Calm,-,N/A,Fog,Light Freezing Fog,0,2013-01-27 17:02:00
8:16 AM,-56.2,-9999,N/A,30.35,0.5,Calm,Calm,-,N/A,,Overcast,0,2013-01-27 17:16:00
8:19 AM,-56.2,-9999,N/A,30.35,0.8,Calm,Calm,-,N/A,,Overcast,0,2013-01-27 17:19:00
8:28 AM,-56.2,-9999,N/A,30.35,1.0,Calm,Calm,-,N/A,,Overcast,0,2013-01-27 17:28:00
8:36 AM,-56.2,-9999,N/A,30.36,1.0,Calm,Calm,-,N/A,,Overcast,0,2013-01-27 17:36:00
8:56 AM,-56.2,-9999,N/A,30.36,1.0,Calm,Calm,-,N/A,,Overcast,0,2013-01-27 17:56:00
9:11 AM,-56.2,-9999,N/A,30.37,1.5,Calm,Calm,-,N/A,,Overcast,0,2013-01-27 18:11:00
9:16 AM,-56.2,-9999,N/A,30.37,0.8,Calm,Calm,-,N/A,,Overcast,0,2013-01-27 18:16:00
9:19 AM,-56.2,-9999,N/A,30.37,0.5,Calm,Calm,-,N/A,Fog,Light Freezing Fog,0,2013-01-27 18:19:00
9:31 AM,-56.2,-9999,N/A,30.38,1.0,Calm,Calm,-,N/A,,Mostly Cloudy,0,2013-01-27 18:31:00
9:36 AM,-56.2,-9999,N/A,30.38,1.0,Calm,Calm,-,N/A,,Mostly Cloudy,0,2013-01-27 18:36:00
9:48 AM,-56.2,-9999,N/A,30.38,0.8,Calm,Calm,-,N/A,,Mostly Cloudy,0,2013-01-27 18:48:00
9:56 AM,-56.2,-9999,N/A,30.38,0.8,Calm,Calm,-,N/A,,Mostly Cloudy,0,2013-01-27 18:56:00
10:09 AM,-56.2,-9999,N/A,30.39,0.2,Calm,Calm,-,N/A,Fog,Light Freezing Fog,0,2013-01-27 19:09:00
10:16 AM,-56.2,-9999,N/A,30.38,0.2,Calm,Calm,-,N/A,,Overcast,0,2013-01-27 19:16:00
10:36 AM,-54.4,-9999,N/A,30.39,0.2,Calm,Calm,-,N/A,,Overcast,0,2013-01-27 19:36:00
10:56 AM,-54.4,-9999,N/A,30.39,0.2,Calm,Calm,-,N/A,,Mostly Cloudy,0,2013-01-27 19:56:00
11:16 AM,-52.6,-9999,N/A,30.40,0.5,Calm,Calm,-,N/A,,Mostly Cloudy,0,2013-01-27 20:16:00
11:36 AM,-50.8,-9999,N/A,30.41,0.5,Calm,Calm,-,N/A,,Mostly Cloudy,0,2013-01-27 20:36:00
11:42 AM,-50.8,-9999,N/A,30.41,0.8,Calm,Calm,-,N/A,,Mostly Cloudy,0,2013-01-27 20:42:00
11:52 AM,-50.8,-9999,N/A,30.41,1.0,Calm,Calm,-,N/A,,Mostly Cloudy,0,2013-01-27 20:52:00
11:56 AM,-50.8,-9999,N/A,30.41,1.0,Calm,Calm,-,N/A,,Mostly Cloudy,0,2013-01-27 20:56:00
12:03 PM,-49.0,-9999,N/A,30.41,0.5,Calm,Calm,-,N/A,Fog,Light Freezing Fog,0,2013-01-27 21:03:00
12:16 PM,-47.2,-9999,N/A,30.41,0.5,Calm,Calm,-,N/A,,Mostly Cloudy,0,2013-01-27 21:16:00
12:36 PM,-45.4,-9999,N/A,30.43,0.8,Calm,Calm,-,N/A,,Mostly Cloudy,0,2013-01-27 21:36:00
12:52 PM,-45.4,-9999,N/A,30.43,1.0,Calm,Calm,-,N/A,,Mostly Cloudy,0,2013-01-27 21:52:00
12:56 PM,-45.4,-9999,N/A,30.43,1.0,Calm,Calm,-,N/A,,Mostly Cloudy,0,2013-01-27 21:56:00
12:59 PM,-45.4,-9999,N/A,30.43,1.0,Calm,Calm,-,N/A,,Scattered Clouds,0,2013-01-27 21:59:00
1:16 PM,-45.4,-9999,N/A,30.43,1.0,Calm,Calm,-,N/A,,Scattered Clouds,0,2013-01-27 22:16:00
1:36 PM,-45.4,-9999,N/A,30.44,1.5,Calm,Calm,-,N/A,,Scattered Clouds,0,2013-01-27 22:36:00
1:56 PM,-43.6,-9999,N/A,30.44,1.5,Calm,Calm,-,N/A,,Partly Cloudy,0,2013-01-27 22:56:00
2:05 PM,-43.6,-9999,N/A,30.45,3.0,Calm,Calm,-,N/A,,Partly Cloudy,0,2013-01-27 23:05:00
2:16 PM,-43.6,-9999,N/A,30.45,3.0,Calm,Calm,-,N/A,,Partly Cloudy,0,2013-01-27 23:16:00
2:36 PM,-43.6,-9999,N/A,30.46,3.0,Calm,Calm,-,N/A,,Partly Cloudy,0,2013-01-27 23:36:00
2:56 PM,-43.6,-9999,N/A,30.46,5.0,Calm,Calm,-,N/A,,Partly Cloudy,0,2013-01-27 23:56:00
3:16 PM,-43.6,-9999,N/A,30.46,5.0,Calm,Calm,-,N/A,,Partly Cloudy,0,2013-01-28 00:16:00
3:36 PM,-43.6,-9999,N/A,30.47,5.0,Calm,Calm,-,N/A,,Partly Cloudy,0,2013-01-28 00:36:00
3:56 PM,-43.6,-9999,N/A,30.46,5.0,Calm,Calm,-,N/A,,Partly Cloudy,0,2013-01-28 00:56:00
4:16 PM,-45.4,-9999,N/A,30.46,5.0,Calm,Calm,-,N/A,,Partly Cloudy,0,2013-01-28 01:16:00
4:36 PM,-45.4,-9999,N/A,30.47,3.0,Calm,Calm,-,N/A,,Partly Cloudy,0,2013-01-28 01:36:00
4:56 PM,-47.2,-9999,N/A,30.48,3.0,Calm,Calm,-,N/A,,Partly Cloudy,0,2013-01-28 01:56:00
5:16 PM,-47.2,-9999,N/A,30.48,5.0,Calm,Calm,-,N/A,,Partly Cloudy,0,2013-01-28 02:16:00
5:36 PM,-47.2,-9999,N/A,30.48,3.0,Calm,Calm,-,N/A,,Partly Cloudy,0,2013-01-28 02:36:00
5:56 PM,-47.2,-9999,N/A,30.48,3.0,Calm,Calm,-,N/A,,Partly Cloudy,0,2013-01-28 02:56:00
6:16 PM,-45.4,-9999,N/A,30.49,1.5,Calm,Calm,-,N/A,,Partly Cloudy,0,2013-01-28 03:16:00
6:36 PM,-43.6,-9999,N/A,30.49,3.0,Calm,Calm,-,N/A,,Partly Cloudy,0,2013-01-28 03:36:00
6:56 PM,-43.6,-9999,N/A,30.50,3.0,Calm,Calm,-,N/A,,Partly Cloudy,0,2013-01-28 03:56:00
7:36 PM,-41.8,-9999,N/A,30.50,2.0,Calm,Calm,-,N/A,,Overcast,0,2013-01-28 04:36:00
7:56 PM,-43.6,-9999,N/A,30.50,1.8,Calm,Calm,-,N/A,,Overcast,0,2013-01-28 04:56:00
8:16 PM,-43.6,-9999,N/A,30.50,1.0,Calm,Calm,-,N/A,,Overcast,0,2013-01-28 05:16:00
8:36 PM,-43.6,-9999,N/A,30.51,2.5,Calm,Calm,-,N/A,,Overcast,0,2013-01-28 05:36:00
8:56 PM,-43.6,-9999,N/A,30.50,3.0,Calm,Calm,-,N/A,,Overcast,0,2013-01-28 05:56:00
9:36 PM,-45.4,-9999,N/A,30.51,5.0,Calm,Calm,-,N/A,,Overcast,0,2013-01-28 06:36:00
9:56 PM,-45.4,-9999,N/A,30.52,10.0,Calm,Calm,-,N/A,,Overcast,0,2013-01-28 06:56:00
10:16 PM,-45.4,-9999,N/A,30.52,7.0,Calm,Calm,-,N/A,,Mostly Cloudy,0,2013-01-28 07:16:00
10:36 PM,-45.4,-9999,N/A,30.52,10.0,Calm,Calm,-,N/A,,Mostly Cloudy,0,2013-01-28 07:36:00
10:56 PM,-45.4,-9999,N/A,30.52,10.0,Calm,Calm,-,N/A,,Overcast,0,2013-01-28 07:56:00
11:16 PM,-45.4,-9999,N/A,30.53,10.0,Calm,Calm,-,N/A,,Overcast,0,2013-01-28 08:16:00
11:56 PM,-43.6,-9999,N/A,30.52,10.0,Calm,Calm,-,N/A,,Mostly Cloudy,0,2013-01-28 08:56:00